| time (UTC) | temp F | wind direction | speed MPH | gust MPH | rain 1hr in | rain 24hr in | rain mn in | humidity % | barometer mb |
| 20260509220032 | 90 | 140 | 1.0 | 8.0 | 0.00 | 0.05 | 0.05 | 40 | 1009.1 |
| 20260509215514 | 90 | 161 | 2.0 | 8.0 | 0.00 | 0.05 | 0.05 | 39 | 1009.1 |
| 20260509215014 | 89 | 132 | 1.0 | 7.0 | 0.00 | 0.05 | 0.05 | 40 | 1009.2 |
| 20260509214532 | 90 | 105 | 1.0 | 7.0 | 0.00 | 0.05 | 0.05 | 38 | 1009.3 |
| 20260509214016 | 90 | 228 | 4.0 | 7.0 | 0.00 | 0.05 | 0.05 | 40 | 1009.3 |
| 20260509213515 | 90 | 147 | 1.0 | 6.0 | 0.00 | 0.05 | 0.05 | 40 | 1009.3 |
| 20260509213034 | 89 | 0 | 0.0 | 7.0 | 0.00 | 0.05 | 0.05 | 42 | 1009.3 |
| 20260509212514 | 90 | 157 | 2.0 | 9.0 | 0.00 | 0.05 | 0.05 | 40 | 1009.4 |
| 20260509212016 | 90 | 225 | 4.0 | 9.0 | 0.00 | 0.05 | 0.05 | 41 | 1009.5 |
| 20260509211533 | 91 | 159 | 2.0 | 8.0 | 0.00 | 0.05 | 0.05 | 40 | 1009.5 |
| 20260509211017 | 91 | 165 | 2.0 | 8.0 | 0.00 | 0.05 | 0.05 | 41 | 1009.6 |
| 20260509210516 | 89 | 134 | 1.0 | 6.0 | 0.00 | 0.05 | 0.05 | 43 | 1009.7 |
| 20260509210036 | 90 | 209 | 2.0 | 10.0 | 0.00 | 0.05 | 0.05 | 41 | 1009.8 |
| 20260509205515 | 90 | 161 | 3.0 | 10.0 | 0.00 | 0.05 | 0.05 | 42 | 1009.9 |
| 20260509205018 | 90 | 33 | 2.0 | 6.0 | 0.00 | 0.05 | 0.05 | 42 | 1010.0 |
| 20260509204532 | 90 | 92 | 2.0 | 7.0 | 0.00 | 0.05 | 0.05 | 41 | 1010.0 |
| 20260509204015 | 89 | 230 | 3.0 | 7.0 | 0.00 | 0.05 | 0.05 | 43 | 1010.1 |
| 20260509203516 | 89 | 256 | 3.0 | 7.0 | 0.00 | 0.05 | 0.05 | 41 | 1010.2 |
| 20260509203031 | 90 | 186 | 1.0 | 8.0 | 0.00 | 0.05 | 0.05 | 41 | 1010.3 |
| 20260509202515 | 91 | 159 | 2.0 | 8.0 | 0.00 | 0.05 | 0.05 | 43 | 1010.2 |
| 20260509202015 | 90 | 98 | 2.0 | 7.0 | 0.00 | 0.05 | 0.05 | 45 | 1010.4 |
| 20260509201531 | 89 | 234 | 2.0 | 6.0 | 0.00 | 0.05 | 0.05 | 45 | 1010.3 |
| 20260509201015 | 89 | 128 | 1.0 | 5.0 | 0.00 | 0.05 | 0.05 | 48 | 1010.3 |
| 20260509200515 | 89 | 234 | 1.0 | 5.0 | 0.00 | 0.05 | 0.05 | 45 | 1010.4 |
| 20260509200030 | 88 | 125 | 2.0 | 5.0 | 0.00 | 0.05 | 0.05 | 46 | 1010.4 |
| 20260509195521 | 87 | 343 | 1.0 | 6.0 | 0.00 | 0.05 | 0.05 | 47 | 1010.4 |
| 20260509195015 | 89 | 140 | 1.0 | 6.0 | 0.00 | 0.05 | 0.05 | 45 | 1010.6 |
| 20260509194533 | 89 | 150 | 1.0 | 5.0 | 0.00 | 0.05 | 0.05 | 47 | 1010.6 |
| 20260509194016 | 88 | 225 | 2.0 | 7.0 | 0.00 | 0.05 | 0.05 | 47 | 1010.8 |
| 20260509193516 | 89 | 158 | 2.0 | 7.0 | 0.00 | 0.05 | 0.05 | 50 | 1010.9 |
| 20260509193036 | 89 | 123 | 3.0 | 9.0 | 0.00 | 0.05 | 0.05 | 47 | 1010.9 |
| 20260509192515 | 89 | 110 | 2.0 | 9.0 | 0.00 | 0.05 | 0.05 | 47 | 1011.0 |
| 20260509192018 | 88 | 107 | 2.0 | 5.0 | 0.00 | 0.05 | 0.05 | 50 | 1011.1 |
| 20260509191530 | 88 | 93 | 1.0 | 5.0 | 0.00 | 0.05 | 0.05 | 51 | 1011.1 |
| 20260509191016 | 87 | 74 | 2.0 | 6.0 | 0.00 | 0.05 | 0.05 | 52 | 1011.0 |
| 20260509190517 | 86 | 346 | 2.0 | 6.0 | 0.00 | 0.05 | 0.05 | 49 | 1011.1 |
| 20260509190029 | 87 | 343 | 1.0 | 6.0 | 0.00 | 0.05 | 0.05 | 48 | 1011.2 |
| 20260509185516 | 87 | 55 | 2.0 | 6.0 | 0.00 | 0.07 | 0.05 | 50 | 1011.2 |
| 20260509185016 | 86 | 78 | 1.0 | 8.0 | 0.00 | 0.07 | 0.05 | 50 | 1011.2 |
| 20260509184538 | 86 | 69 | 2.0 | 8.0 | 0.00 | 0.07 | 0.05 | 48 | 1011.2 |
| 20260509184016 | 86 | 59 | 1.0 | 4.0 | 0.00 | 0.07 | 0.05 | 51 | 1011.4 |
| 20260509183516 | 85 | 86 | 1.0 | 4.0 | 0.00 | 0.07 | 0.05 | 49 | 1011.4 |
| 20260509183035 | 84 | 132 | 1.0 | 5.0 | 0.00 | 0.07 | 0.05 | 51 | 1011.4 |
| 20260509182515 | 83 | 57 | 2.0 | 5.0 | 0.00 | 0.07 | 0.05 | 51 | 1011.6 |
| 20260509182015 | 83 | 35 | 2.0 | 8.0 | 0.00 | 0.07 | 0.05 | 51 | 1011.7 |
| 20260509181530 | 84 | 216 | 3.0 | 8.0 | 0.00 | 0.07 | 0.05 | 51 | 1011.8 |
| 20260509181022 | 84 | 294 | 2.0 | 7.0 | 0.00 | 0.07 | 0.05 | 49 | 1011.8 |
| 20260509180516 | 85 | 331 | 2.0 | 5.0 | 0.00 | 0.07 | 0.05 | 51 | 1011.9 |
| 20260509180032 | 84 | 0 | 1.0 | 6.0 | 0.00 | 0.07 | 0.05 | 55 | 1012.0 |
| 20260509175515 | 84 | 5 | 3.0 | 8.0 | 0.00 | 0.07 | 0.05 | 54 | 1012.0 |
| 20260509175019 | 84 | 0 | 0.0 | 8.0 | 0.00 | 0.07 | 0.05 | 58 | 1012.2 |
| 20260509174532 | 83 | 328 | 2.0 | 8.0 | 0.00 | 0.07 | 0.05 | 54 | 1012.3 |
| 20260509174021 | 82 | 0 | 1.0 | 8.0 | 0.00 | 0.07 | 0.05 | 57 | 1012.4 |
| 20260509173517 | 82 | 304 | 2.0 | 8.0 | 0.00 | 0.07 | 0.05 | 57 | 1012.4 |
| 20260509173029 | 81 | 0 | 2.0 | 8.0 | 0.00 | 0.07 | 0.05 | 58 | 1012.4 |
| 20260509172520 | 82 | 286 | 2.0 | 8.0 | 0.00 | 0.07 | 0.05 | 59 | 1012.5 |
| 20260509172016 | 81 | 0 | 2.0 | 8.0 | 0.00 | 0.07 | 0.05 | 60 | 1012.4 |
| 20260509171541 | 81 | 315 | 3.0 | 8.0 | 0.00 | 0.07 | 0.05 | 60 | 1012.4 |
| 20260509171015 | 81 | 355 | 2.0 | 9.0 | 0.00 | 0.07 | 0.05 | 61 | 1012.4 |
| 20260509170516 | 81 | 278 | 4.0 | 9.0 | 0.00 | 0.07 | 0.05 | 61 | 1012.4 |
| 20260509170032 | 81 | 327 | 2.0 | 6.0 | 0.00 | 0.07 | 0.05 | 62 | 1012.5 |
| 20260509165515 | 81 | 44 | 2.0 | 7.0 | 0.00 | 0.07 | 0.05 | 64 | 1012.6 |
| 20260509165015 | 80 | 355 | 2.0 | 7.0 | 0.00 | 0.07 | 0.05 | 63 | 1012.5 |
| 20260509164533 | 80 | 344 | 2.0 | 7.0 | 0.00 | 0.07 | 0.05 | 64 | 1012.6 |
| 20260509164017 | 79 | 317 | 2.0 | 9.0 | 0.00 | 0.07 | 0.05 | 65 | 1012.7 |
| 20260509163516 | 79 | 298 | 3.0 | 9.0 | 0.00 | 0.07 | 0.05 | 65 | 1012.7 |
| 20260509163048 | 79 | 245 | 1.0 | 7.0 | 0.00 | 0.07 | 0.05 | 65 | 1012.8 |
| 20260509162514 | 78 | 0 | 2.0 | 8.0 | 0.00 | 0.07 | 0.05 | 67 | 1012.8 |
| 20260509162014 | 78 | 342 | 3.0 | 8.0 | 0.00 | 0.07 | 0.05 | 66 | 1012.9 |
| 20260509161533 | 78 | 281 | 3.0 | 8.0 | 0.00 | 0.07 | 0.05 | 67 | 1012.9 |
| 20260509161018 | 78 | 316 | 4.0 | 8.0 | 0.00 | 0.07 | 0.05 | 68 | 1012.9 |
| 20260509160515 | 77 | 311 | 2.0 | 8.0 | 0.00 | 0.07 | 0.05 | 68 | 1012.9 |
| 20260509160030 | 77 | 238 | 2.0 | 8.0 | 0.00 | 0.07 | 0.05 | 66 | 1012.9 |
| 20260509155514 | 76 | 265 | 4.0 | 8.0 | 0.00 | 0.07 | 0.05 | 69 | 1012.9 |
| 20260509155014 | 76 | 314 | 3.0 | 7.0 | 0.00 | 0.07 | 0.05 | 68 | 1012.9 |
| 20260509154535 | 76 | 26 | 2.0 | 6.0 | 0.00 | 0.07 | 0.05 | 72 | 1012.9 |
| 20260509154015 | 76 | 302 | 2.0 | 7.0 | 0.00 | 0.07 | 0.05 | 69 | 1012.9 |
| 20260509153514 | 75 | 301 | 3.0 | 7.0 | 0.00 | 0.07 | 0.05 | 70 | 1012.9 |
| 20260509153034 | 75 | 330 | 1.0 | 5.0 | 0.00 | 0.07 | 0.05 | 71 | 1012.8 |
| 20260509152514 | 75 | 306 | 2.0 | 5.0 | 0.00 | 0.07 | 0.05 | 70 | 1012.8 |
| 20260509152015 | 74 | 264 | 0.0 | 4.0 | 0.00 | 0.07 | 0.05 | 74 | 1012.8 |
| 20260509151532 | 74 | 329 | 0.0 | 3.0 | 0.00 | 0.07 | 0.05 | 72 | 1012.9 |
| 20260509151014 | 74 | 150 | 1.0 | 4.0 | 0.00 | 0.07 | 0.05 | 71 | 1012.9 |
| 20260509150514 | 73 | 0 | 1.0 | 4.0 | 0.00 | 0.07 | 0.05 | 72 | 1012.9 |
| 20260509150029 | 73 | 321 | 1.0 | 4.0 | 0.00 | 0.07 | 0.05 | 70 | 1012.9 |
| 20260509145514 | 73 | 298 | 2.0 | 4.0 | 0.00 | 0.07 | 0.05 | 73 | 1012.9 |
| 20260509145015 | 72 | 15 | 1.0 | 3.0 | 0.00 | 0.07 | 0.05 | 72 | 1013.0 |
| 20260509144546 | 72 | 344 | 1.0 | 3.0 | 0.00 | 0.07 | 0.05 | 74 | 1013.0 |
| 20260509144015 | 71 | 0 | 0.0 | 4.0 | 0.00 | 0.07 | 0.05 | 74 | 1013.1 |
| 20260509143522 | 71 | 0 | 0.0 | 5.0 | 0.00 | 0.07 | 0.05 | 79 | 1013.0 |
| 20260509143032 | 70 | 67 | 1.0 | 5.0 | 0.00 | 0.07 | 0.05 | 78 | 1013.0 |
| 20260509142517 | 70 | 335 | 1.0 | 5.0 | 0.00 | 0.07 | 0.05 | 77 | 1013.0 |
| 20260509142015 | 69 | 319 | 2.0 | 5.0 | 0.00 | 0.07 | 0.05 | 79 | 1012.9 |
| 20260509141539 | 68 | 0 | 1.0 | 4.0 | 0.00 | 0.07 | 0.05 | 81 | 1013.1 |
| 20260509141015 | 67 | 19 | 0.0 | 4.0 | 0.00 | 0.07 | 0.05 | 83 | 1013.1 |
| 20260509140516 | 67 | 9 | 1.0 | 4.0 | 0.00 | 0.07 | 0.05 | 82 | 1013.0 |
| 20260509140034 | 67 | 59 | 0.0 | 4.0 | 0.00 | 0.07 | 0.05 | 85 | 1013.0 |
| 20260509135515 | 66 | 0 | 1.0 | 4.0 | 0.00 | 0.07 | 0.05 | 85 | 1013.0 |
| 20260509135017 | 66 | 338 | 1.0 | 4.0 | 0.00 | 0.07 | 0.05 | 85 | 1013.0 |
| 20260509134529 | 66 | 355 | 1.0 | 4.0 | 0.00 | 0.07 | 0.05 | 85 | 1013.0 |
| 20260509134019 | 66 | 0 | 1.0 | 4.0 | 0.00 | 0.07 | 0.05 | 86 | 1013.0 |
| 20260509133516 | 65 | 332 | 1.0 | 5.0 | 0.00 | 0.07 | 0.05 | 86 | 1012.8 |
| 20260509133033 | 65 | 342 | 2.0 | 5.0 | 0.00 | 0.07 | 0.05 | 86 | 1012.8 |
| 20260509132516 | 65 | 342 | 2.0 | 5.0 | 0.00 | 0.07 | 0.05 | 87 | 1012.7 |
| 20260509132016 | 65 | 315 | 2.0 | 5.0 | 0.00 | 0.07 | 0.05 | 87 | 1012.8 |
| 20260509131538 | 64 | 311 | 1.0 | 4.0 | 0.00 | 0.07 | 0.05 | 89 | 1012.7 |
| 20260509131017 | 64 | 315 | 2.0 | 5.0 | 0.00 | 0.07 | 0.05 | 89 | 1012.7 |
| 20260509130516 | 63 | 329 | 1.0 | 5.0 | 0.00 | 0.07 | 0.05 | 90 | 1012.5 |
| 20260509130032 | 63 | 12 | 1.0 | 7.0 | 0.00 | 0.07 | 0.05 | 90 | 1012.4 |
| 20260509125516 | 63 | 0 | 2.0 | 7.0 | 0.00 | 0.07 | 0.05 | 90 | 1012.4 |
| 20260509125016 | 63 | 340 | 1.0 | 6.0 | 0.00 | 0.07 | 0.05 | 90 | 1012.3 |
| 20260509124543 | 63 | 340 | 2.0 | 5.0 | 0.00 | 0.07 | 0.05 | 90 | 1012.2 |
| 20260509124017 | 63 | 329 | 1.0 | 4.0 | 0.00 | 0.07 | 0.05 | 90 | 1012.1 |
| 20260509123516 | 63 | 338 | 0.0 | 4.0 | 0.00 | 0.07 | 0.05 | 91 | 1012.1 |
| 20260509123030 | 63 | 336 | 1.0 | 4.0 | 0.00 | 0.07 | 0.05 | 91 | 1012.1 |
| 20260509122515 | 63 | 346 | 1.0 | 4.0 | 0.00 | 0.07 | 0.05 | 90 | 1011.9 |
| 20260509122015 | 63 | 304 | 2.0 | 4.0 | 0.00 | 0.07 | 0.05 | 90 | 1011.8 |
| 20260509121535 | 63 | 355 | 0.0 | 2.0 | 0.00 | 0.07 | 0.05 | 91 | 1011.7 |
| 20260509121017 | 63 | 0 | 0.0 | 1.0 | 0.00 | 0.07 | 0.05 | 91 | 1011.5 |
| 20260509120517 | 63 | 0 | 0.0 | 2.0 | 0.00 | 0.07 | 0.05 | 91 | 1011.5 |
| 20260509120029 | 62 | 0 | 0.0 | 2.0 | 0.00 | 0.07 | 0.05 | 92 | 1011.4 |
| 20260509115517 | 63 | 0 | 0.0 | 2.0 | 0.00 | 0.07 | 0.05 | 91 | 1011.3 |
| 20260509115016 | 62 | 0 | 0.0 | 3.0 | 0.00 | 0.07 | 0.05 | 92 | 1011.2 |
| 20260509114533 | 63 | 0 | 0.0 | 3.0 | 0.00 | 0.07 | 0.05 | 92 | 1011.1 |
| 20260509114016 | 63 | 0 | 0.0 | 3.0 | 0.00 | 0.07 | 0.05 | 92 | 1011.0 |
| 20260509113516 | 63 | 0 | 0.0 | 3.0 | 0.00 | 0.07 | 0.05 | 92 | 1010.8 |
| 20260509113030 | 63 | 0 | 0.0 | 3.0 | 0.00 | 0.07 | 0.05 | 91 | 1010.8 |
| 20260509112517 | 63 | 0 | 0.0 | 3.0 | 0.00 | 0.07 | 0.05 | 91 | 1010.8 |
| 20260509112016 | 63 | 0 | 0.0 | 4.0 | 0.00 | 0.07 | 0.05 | 91 | 1010.6 |
| 20260509111531 | 63 | 58 | 0.0 | 4.0 | 0.00 | 0.07 | 0.05 | 91 | 1010.7 |
| 20260509111016 | 63 | 47 | 1.0 | 6.0 | 0.00 | 0.07 | 0.05 | 91 | 1010.5 |
| 20260509110515 | 63 | 67 | 1.0 | 6.0 | 0.00 | 0.07 | 0.05 | 91 | 1010.6 |
| 20260509110033 | 63 | 64 | 0.0 | 3.0 | 0.00 | 0.07 | 0.05 | 91 | 1010.6 |
| 20260509105516 | 64 | 0 | 0.0 | 3.0 | 0.00 | 0.07 | 0.05 | 89 | 1010.3 |
| 20260509105016 | 65 | 0 | 0.0 | 3.0 | 0.00 | 0.07 | 0.05 | 88 | 1010.1 |
| 20260509104536 | 65 | 0 | 1.0 | 3.0 | 0.00 | 0.07 | 0.05 | 88 | 1010.2 |
| 20260509104016 | 65 | 0 | 0.0 | 5.0 | 0.00 | 0.07 | 0.05 | 88 | 1010.2 |
| 20260509103516 | 65 | 0 | 2.0 | 5.0 | 0.00 | 0.07 | 0.05 | 88 | 1010.3 |
| 20260509103031 | 65 | 178 | 0.0 | 4.0 | 0.00 | 0.07 | 0.05 | 88 | 1010.1 |
| 20260509102518 | 65 | 178 | 1.0 | 7.0 | 0.00 | 0.07 | 0.05 | 87 | 1009.9 |
| 20260509102017 | 65 | 0 | 2.0 | 7.0 | 0.00 | 0.07 | 0.05 | 87 | 1010.1 |
| 20260509101531 | 65 | 163 | 2.0 | 7.0 | 0.00 | 0.07 | 0.05 | 87 | 1010.0 |
| 20260509101017 | 65 | 211 | 2.0 | 7.0 | 0.00 | 0.07 | 0.05 | 86 | 1009.8 |
| 20260509100516 | 65 | 208 | 2.0 | 6.0 | 0.00 | 0.07 | 0.05 | 86 | 1010.0 |
| 20260509100049 | 66 | 235 | 3.0 | 8.0 | 0.00 | 0.07 | 0.05 | 85 | 1009.9 |
| 20260509095518 | 66 | 234 | 2.0 | 10.0 | 0.00 | 0.07 | 0.05 | 85 | 1009.8 |
| 20260509095015 | 66 | 248 | 4.0 | 10.0 | 0.00 | 0.07 | 0.05 | 86 | 1010.0 |
| 20260509094535 | 66 | 229 | 3.0 | 7.0 | 0.00 | 0.07 | 0.05 | 87 | 1009.9 |
| 20260509094016 | 65 | 213 | 3.0 | 6.0 | 0.00 | 0.07 | 0.05 | 88 | 1009.6 |
| 20260509093516 | 65 | 167 | 1.0 | 8.0 | 0.00 | 0.07 | 0.05 | 88 | 1009.0 |
| 20260509093035 | 66 | 215 | 2.0 | 8.0 | 0.00 | 0.07 | 0.05 | 87 | 1008.9 |
| 20260509092515 | 65 | 157 | 3.0 | 7.0 | 0.00 | 0.07 | 0.05 | 89 | 1009.2 |
| 20260509092015 | 65 | 142 | 3.0 | 7.0 | 0.00 | 0.07 | 0.05 | 90 | 1009.9 |
| 20260509091532 | 64 | 148 | 3.0 | 8.0 | 0.00 | 0.07 | 0.05 | 91 | 1010.2 |
| 20260509091016 | 64 | 196 | 2.0 | 10.0 | 0.00 | 0.07 | 0.05 | 91 | 1010.7 |
| 20260509090516 | 64 | 288 | 2.0 | 11.0 | 0.00 | 0.07 | 0.05 | 91 | 1011.1 |
| 20260509090032 | 63 | 230 | 2.0 | 20.0 | 0.00 | 0.07 | 0.05 | 93 | 1010.9 |
| 20260509085516 | 63 | 160 | 6.0 | 20.0 | 0.00 | 0.07 | 0.05 | 93 | 1009.9 |
| 20260509085022 | 62 | 138 | 7.0 | 20.0 | 0.00 | 0.07 | 0.05 | 93 | 1009.3 |
| 20260509084535 | 62 | 143 | 3.0 | 6.0 | 0.00 | 0.07 | 0.05 | 92 | 1010.3 |
| 20260509084016 | 61 | 153 | 2.0 | 5.0 | 0.00 | 0.07 | 0.05 | 92 | 1010.6 |
| 20260509083516 | 61 | 165 | 3.0 | 5.0 | 0.00 | 0.07 | 0.05 | 91 | 1010.8 |
| 20260509083031 | 61 | 165 | 1.0 | 4.0 | 0.00 | 0.07 | 0.05 | 91 | 1011.3 |
| 20260509082520 | 61 | 136 | 0.0 | 5.0 | 0.00 | 0.07 | 0.05 | 90 | 1011.3 |
| 20260509082016 | 61 | 136 | 0.0 | 5.0 | 0.01 | 0.07 | 0.05 | 90 | 1010.9 |
| 20260509081542 | 61 | 148 | 1.0 | 5.0 | 0.02 | 0.07 | 0.05 | 90 | 1010.9 |
| 20260509081016 | 61 | 172 | 1.0 | 3.0 | 0.03 | 0.07 | 0.05 | 90 | 1011.1 |
| 20260509080517 | 61 | 151 | 1.0 | 4.0 | 0.05 | 0.07 | 0.05 | 90 | 1011.5 |
| 20260509080031 | 61 | 166 | 0.0 | 6.0 | 0.05 | 0.07 | 0.05 | 89 | 1012.0 |
| 20260509075517 | 62 | 133 | 2.0 | 6.0 | 0.05 | 0.07 | 0.05 | 89 | 1012.4 |
| 20260509075016 | 61 | 296 | 2.0 | 4.0 | 0.05 | 0.07 | 0.05 | 89 | 1012.3 |
| 20260509074535 | 61 | 271 | 0.0 | 2.0 | 0.05 | 0.07 | 0.05 | 89 | 1012.1 |
| 20260509074016 | 61 | 147 | 0.0 | 2.0 | 0.05 | 0.07 | 0.05 | 90 | 1012.3 |
| 20260509073516 | 61 | 0 | 0.0 | 2.0 | 0.05 | 0.07 | 0.05 | 90 | 1012.3 |
| 20260509073031 | 62 | 0 | 0.0 | 2.0 | 0.05 | 0.07 | 0.05 | 89 | 1012.5 |
| 20260509072521 | 62 | 65 | 0.0 | 6.0 | 0.05 | 0.07 | 0.05 | 87 | 1012.8 |
| 20260509072015 | 63 | 0 | 0.0 | 6.0 | 0.04 | 0.06 | 0.04 | 85 | 1013.2 |
| 20260509071530 | 64 | 61 | 2.0 | 8.0 | 0.03 | 0.05 | 0.03 | 83 | 1013.3 |
| 20260509071016 | 66 | 15 | 2.0 | 9.0 | 0.02 | 0.04 | 0.02 | 80 | 1013.4 |
| 20260509070516 | 67 | 86 | 3.0 | 9.0 | 0.00 | 0.02 | 0.00 | 79 | 1013.4 |
| 20260509070040 | 67 | 342 | 3.0 | 14.0 | 0.00 | 0.02 | 0.00 | 78 | 1013.4 |
| 20260509065520 | 66 | 350 | 3.0 | 14.0 | 0.00 | 0.02 | 0.00 | 83 | 1013.7 |
| 20260509065015 | 66 | 355 | 4.0 | 15.0 | 0.00 | 0.02 | 0.00 | 89 | 1013.6 |
| 20260509064531 | 66 | 332 | 4.0 | 15.0 | 0.00 | 0.02 | 0.00 | 93 | 1013.6 |
| 20260509064017 | 66 | 348 | 3.0 | 10.0 | 0.00 | 0.02 | 0.00 | 94 | 1013.5 |
| 20260509063516 | 66 | 17 | 2.0 | 8.0 | 0.00 | 0.02 | 0.00 | 94 | 1013.4 |
| 20260509063038 | 65 | 355 | 2.0 | 11.0 | 0.00 | 0.02 | 0.00 | 94 | 1012.8 |
| 20260509062518 | 65 | 360 | 2.0 | 11.0 | 0.00 | 0.02 | 0.00 | 94 | 1012.7 |
| 20260509062015 | 64 | 16 | 1.0 | 5.0 | 0.00 | 0.02 | 0.00 | 94 | 1012.6 |
| 20260509061543 | 64 | 24 | 0.0 | 5.0 | 0.00 | 0.02 | 0.00 | 93 | 1012.3 |
| 20260509061018 | 64 | 0 | 0.0 | 0.0 | 0.00 | 0.02 | 0.00 | 93 | 1012.0 |
| 20260509060520 | 64 | 0 | 0.0 | 0.0 | 0.00 | 0.02 | 0.00 | 93 | 1011.8 |
| 20260509060037 | 64 | 0 | 0.0 | 1.0 | 0.00 | 0.02 | 0.00 | 92 | 1011.9 |
| 20260509055516 | 64 | 0 | 0.0 | 1.0 | 0.00 | 0.02 | 0.00 | 92 | 1011.9 |
| 20260509055024 | 64 | 0 | 0.0 | 2.0 | 0.00 | 0.02 | 0.00 | 92 | 1012.0 |
| 20260509054535 | 65 | 0 | 0.0 | 3.0 | 0.00 | 0.02 | 0.00 | 92 | 1012.1 |
| 20260509054016 | 65 | 0 | 1.0 | 3.0 | 0.00 | 0.02 | 0.00 | 92 | 1011.9 |
| 20260509053516 | 65 | 133 | 1.0 | 3.0 | 0.00 | 0.02 | 0.00 | 92 | 1011.5 |
| 20260509053032 | 65 | 0 | 0.0 | 4.0 | 0.00 | 0.02 | 0.00 | 92 | 1011.3 |
| 20260509052516 | 66 | 0 | 1.0 | 4.0 | 0.00 | 0.02 | 0.00 | 92 | 1011.4 |
| 20260509052021 | 66 | 132 | 0.0 | 4.0 | 0.00 | 0.02 | 0.00 | 92 | 1011.2 |
| 20260509051534 | 66 | 162 | 1.0 | 4.0 | 0.00 | 0.02 | 0.00 | 92 | 1011.1 |
| 20260509051016 | 66 | 150 | 1.0 | 4.0 | 0.00 | 0.02 | 0.00 | 91 | 1011.0 |
| 20260509050516 | 66 | 172 | 1.0 | 4.0 | 0.00 | 0.02 | 0.00 | 91 | 1011.0 |
| 20260509050046 | 66 | 172 | 1.0 | 4.0 | 0.00 | 0.02 | 0.00 | 91 | 1010.9 |
| 20260509045516 | 66 | 165 | 2.0 | 7.0 | 0.00 | 0.02 | 0.02 | 91 | 1010.8 |
| 20260509045016 | 66 | 165 | 2.0 | 7.0 | 0.00 | 0.02 | 0.02 | 91 | 1010.7 |
| 20260509044542 | 66 | 144 | 1.0 | 7.0 | 0.00 | 0.02 | 0.02 | 91 | 1010.6 |
| 20260509044015 | 66 | 112 | 2.0 | 7.0 | 0.00 | 0.02 | 0.02 | 91 | 1010.5 |
| 20260509043515 | 66 | 191 | 1.0 | 7.0 | 0.00 | 0.02 | 0.02 | 91 | 1010.7 |
| 20260509043032 | 66 | 178 | 3.0 | 7.0 | 0.00 | 0.02 | 0.02 | 91 | 1010.7 |
| 20260509042520 | 66 | 165 | 3.0 | 7.0 | 0.00 | 0.02 | 0.02 | 91 | 1010.8 |
| 20260509042016 | 66 | 156 | 2.0 | 6.0 | 0.00 | 0.02 | 0.02 | 91 | 1010.8 |
| 20260509041532 | 66 | 163 | 1.0 | 5.0 | 0.00 | 0.02 | 0.02 | 91 | 1010.9 |
| 20260509041017 | 66 | 158 | 1.0 | 5.0 | 0.00 | 0.02 | 0.02 | 91 | 1011.0 |
| 20260509040515 | 66 | 169 | 1.0 | 4.0 | 0.00 | 0.02 | 0.02 | 91 | 1011.2 |
| 20260509040037 | 66 | 167 | 1.0 | 5.0 | 0.00 | 0.02 | 0.02 | 90 | 1011.2 |
| 20260509035515 | 67 | 151 | 1.0 | 5.0 | 0.00 | 0.02 | 0.02 | 90 | 1011.2 |
| 20260509035016 | 67 | 158 | 1.0 | 5.0 | 0.00 | 0.02 | 0.02 | 90 | 1011.1 |
| 20260509034534 | 67 | 167 | 1.0 | 6.0 | 0.00 | 0.02 | 0.02 | 90 | 1011.1 |
| 20260509034016 | 67 | 166 | 1.0 | 6.0 | 0.00 | 0.02 | 0.02 | 90 | 1011.0 |
| 20260509033515 | 67 | 152 | 1.0 | 8.0 | 0.00 | 0.02 | 0.02 | 89 | 1011.0 |
| 20260509033033 | 67 | 122 | 1.0 | 8.0 | 0.00 | 0.02 | 0.02 | 89 | 1010.9 |
| 20260509032520 | 67 | 144 | 2.0 | 6.0 | 0.00 | 0.02 | 0.02 | 89 | 1010.8 |
| 20260509032016 | 67 | 173 | 2.0 | 5.0 | 0.00 | 0.02 | 0.02 | 89 | 1010.8 |
| 20260509031534 | 67 | 160 | 2.0 | 5.0 | 0.00 | 0.02 | 0.02 | 89 | 1010.6 |
| 20260509031016 | 67 | 155 | 1.0 | 5.0 | 0.00 | 0.02 | 0.02 | 88 | 1010.7 |
| 20260509030519 | 67 | 145 | 1.0 | 5.0 | 0.00 | 0.02 | 0.02 | 88 | 1010.4 |
| 20260509030034 | 68 | 0 | 1.0 | 6.0 | 0.00 | 0.02 | 0.02 | 88 | 1010.3 |
| 20260509025516 | 68 | 186 | 1.0 | 6.0 | 0.00 | 0.02 | 0.02 | 88 | 1010.3 |
| 20260509025015 | 68 | 159 | 2.0 | 6.0 | 0.00 | 0.02 | 0.02 | 88 | 1010.2 |
| 20260509024532 | 68 | 154 | 1.0 | 8.0 | 0.00 | 0.02 | 0.02 | 88 | 1010.1 |
| 20260509024017 | 68 | 148 | 2.0 | 8.0 | 0.00 | 0.02 | 0.02 | 88 | 1010.1 |
| 20260509023520 | 68 | 182 | 2.0 | 7.0 | 0.00 | 0.02 | 0.02 | 87 | 1010.1 |
| 20260509023043 | 68 | 144 | 2.0 | 7.0 | 0.00 | 0.02 | 0.02 | 88 | 1010.1 |
| 20260509022516 | 67 | 150 | 1.0 | 2.0 | 0.00 | 0.02 | 0.02 | 87 | 1010.2 |
| 20260509022017 | 68 | 159 | 0.0 | 5.0 | 0.00 | 0.02 | 0.02 | 86 | 1010.3 |
| 20260509021534 | 68 | 0 | 1.0 | 5.0 | 0.00 | 0.02 | 0.02 | 86 | 1010.2 |
| 20260509021015 | 68 | 171 | 1.0 | 3.0 | 0.00 | 0.02 | 0.02 | 86 | 1010.2 |
| 20260509020520 | 69 | 157 | 1.0 | 4.0 | 0.00 | 0.02 | 0.02 | 85 | 1010.2 |
| 20260509020034 | 69 | 157 | 1.0 | 6.0 | 0.00 | 0.02 | 0.02 | 85 | 1010.2 |
| 20260509015516 | 69 | 143 | 1.0 | 6.0 | 0.00 | 0.02 | 0.02 | 85 | 1010.1 |
| 20260509015016 | 69 | 140 | 1.0 | 5.0 | 0.00 | 0.02 | 0.02 | 84 | 1010.0 |
| 20260509014534 | 69 | 161 | 1.0 | 5.0 | 0.00 | 0.02 | 0.02 | 84 | 1010.0 |
| 20260509014015 | 69 | 0 | 0.0 | 5.0 | 0.00 | 0.02 | 0.02 | 83 | 1009.9 |
| 20260509013517 | 69 | 169 | 1.0 | 5.0 | 0.00 | 0.02 | 0.02 | 83 | 1009.9 |
| 20260509013048 | 69 | 155 | 0.0 | 4.0 | 0.00 | 0.02 | 0.02 | 83 | 1009.8 |
| 20260509012515 | 70 | 161 | 1.0 | 3.0 | 0.00 | 0.02 | 0.02 | 82 | 1009.6 |
| 20260509012017 | 70 | 175 | 0.0 | 6.0 | 0.00 | 0.02 | 0.02 | 82 | 1009.6 |
| 20260509011536 | 71 | 138 | 1.0 | 7.0 | 0.00 | 0.02 | 0.02 | 81 | 1009.5 |
| 20260509011015 | 71 | 137 | 2.0 | 7.0 | 0.00 | 0.02 | 0.02 | 81 | 1009.4 |
| 20260509010516 | 71 | 111 | 2.0 | 6.0 | 0.00 | 0.02 | 0.02 | 80 | 1009.3 |
| 20260509010034 | 71 | 197 | 1.0 | 7.0 | 0.00 | 0.02 | 0.02 | 79 | 1009.2 |
| 20260509005517 | 71 | 165 | 1.0 | 7.0 | 0.00 | 0.02 | 0.02 | 79 | 1009.2 |
| 20260509005016 | 72 | 138 | 1.0 | 6.0 | 0.00 | 0.02 | 0.02 | 79 | 1009.2 |
| 20260509004533 | 72 | 180 | 1.0 | 6.0 | 0.00 | 0.02 | 0.02 | 78 | 1009.2 |
| 20260509004016 | 72 | 159 | 1.0 | 4.0 | 0.00 | 0.02 | 0.02 | 78 | 1009.2 |
| 20260509003518 | 73 | 184 | 1.0 | 5.0 | 0.00 | 0.02 | 0.02 | 77 | 1009.0 |
| 20260509003034 | 73 | 175 | 1.0 | 5.0 | 0.00 | 0.02 | 0.02 | 77 | 1009.1 |
| 20260509002515 | 73 | 156 | 1.0 | 5.0 | 0.00 | 0.02 | 0.02 | 76 | 1009.3 |
| 20260509002015 | 74 | 157 | 1.0 | 5.0 | 0.00 | 0.02 | 0.02 | 76 | 1009.3 |
| 20260509001535 | 74 | 139 | 2.0 | 5.0 | 0.00 | 0.02 | 0.02 | 75 | 1009.4 |
| 20260509001016 | 74 | 75 | 1.0 | 6.0 | 0.00 | 0.02 | 0.02 | 75 | 1009.4 |
| 20260509000515 | 74 | 178 | 2.0 | 6.0 | 0.00 | 0.02 | 0.02 | 74 | 1009.3 |
| 20260509000031 | 74 | 191 | 1.0 | 3.0 | 0.00 | 0.02 | 0.02 | 75 | 1009.4 |
| 20260508235515 | 74 | 135 | 0.0 | 8.0 | 0.00 | 0.02 | 0.02 | 74 | 1009.5 |
| 20260508235016 | 75 | 165 | 2.0 | 8.0 | 0.00 | 0.02 | 0.02 | 73 | 1009.4 |
| 20260508234534 | 75 | 161 | 3.0 | 7.0 | 0.00 | 0.02 | 0.02 | 73 | 1009.3 |
| 20260508234017 | 76 | 173 | 2.0 | 7.0 | 0.00 | 0.02 | 0.02 | 73 | 1009.3 |
| 20260508233515 | 75 | 107 | 2.0 | 7.0 | 0.00 | 0.02 | 0.02 | 75 | 1009.4 |
| 20260508233033 | 74 | 196 | 1.0 | 7.0 | 0.00 | 0.02 | 0.02 | 74 | 1009.5 |
| 20260508232515 | 75 | 149 | 2.0 | 8.0 | 0.00 | 0.02 | 0.02 | 73 | 1009.3 |
| 20260508232016 | 76 | 158 | 3.0 | 8.0 | 0.00 | 0.02 | 0.02 | 71 | 1009.1 |
| 20260508231533 | 76 | 184 | 2.0 | 8.0 | 0.00 | 0.02 | 0.02 | 73 | 1009.1 |
| 20260508231016 | 76 | 170 | 2.0 | 8.0 | 0.00 | 0.02 | 0.02 | 73 | 1009.0 |
| 20260508230515 | 76 | 151 | 2.0 | 8.0 | 0.00 | 0.02 | 0.02 | 72 | 1009.0 |
| 20260508230048 | 76 | 133 | 3.0 | 9.0 | 0.00 | 0.02 | 0.02 | 72 | 1009.0 |
| 20260508225515 | 76 | 140 | 3.0 | 9.0 | 0.00 | 0.02 | 0.02 | 72 | 1009.0 |
| 20260508225015 | 75 | 133 | 4.0 | 10.0 | 0.00 | 0.02 | 0.02 | 73 | 1009.0 |
| 20260508224554 | 74 | 167 | 4.0 | 10.0 | 0.00 | 0.02 | 0.02 | 75 | 1009.2 |
| 20260508224015 | 74 | 170 | 3.0 | 9.0 | 0.00 | 0.02 | 0.02 | 74 | 1009.2 |
| 20260508223518 | 75 | 132 | 2.0 | 8.0 | 0.00 | 0.02 | 0.02 | 74 | 1009.3 |
| 20260508223034 | 75 | 160 | 2.0 | 8.0 | 0.00 | 0.02 | 0.02 | 74 | 1009.4 |
| 20260508222515 | 75 | 138 | 2.0 | 7.0 | 0.00 | 0.02 | 0.02 | 74 | 1009.5 |
| 20260508222016 | 75 | 181 | 1.0 | 10.0 | 0.00 | 0.02 | 0.02 | 74 | 1009.5 |
| 20260508221533 | 75 | 139 | 3.0 | 10.0 | 0.00 | 0.02 | 0.02 | 74 | 1009.5 |
| 20260508221022 | 75 | 194 | 1.0 | 6.0 | 0.00 | 0.02 | 0.02 | 74 | 1009.4 |
| 20260508220516 | 75 | 172 | 2.0 | 9.0 | 0.00 | 0.02 | 0.02 | 74 | 1009.4 |